Location: Berville
(49.1893°N, 2.0748°E)
Time: 18:46:26
(UTC+00:00)

Cosmos 1626 Rocket - Pass Details

Date: 08 February 2023
Orbit: 602 x 629 km, 82.5° (Epoch: 30 March)

Event Time Altitude Azimuth Distance (km) Brightness Sun altitude
Rises 19:00:30 0° 196° (SSW) 2,845 7.2 -20.1°
Reaches altitude 10° 19:02:43 10° 200° (SSW) 1,949 6.3 -20.5°
Maximum altitude 19:07:00 64° 282° (WNW) 677 3.9 -21.2°
Drops below altitude 10° 19:11:20 10° 4° (N) 1,978 6.1 -21.9°
Sets 19:13:36 0° 8° (N) 2,892 7.0 -22.2°
